IRIDIUM 151 (43074 NORAD) Tracking and Keplerian Element Data

This shows tracking and keplerian element data for the satellite.

Feedback or suggestion? Click here.




ElementValue
Catalog43074
NameIRIDIUM 151
Epoch Orbit13779
Epoch Day222.8691052
Epoch Year2020
RAAN135.2735
Inclination86.3999
Eccentricity0.0001908
Argument of Perigee76.5009
Mean Anonmoly283.6399
Mean Motion14.34219089
Decay Rate7.6E-07
L11 43074U 17083E 20222.86910520 .00000076 00000-0 20152-4 0 9993
L22 43074 86.3999 135.2735 0001908 76.5009 283.6399 14.34219089137793

Live tracking and technical data element details for IRIDIUM 151 (NORAD 43074). IRIDIUM 151 can be tracked NOW for your location showing map with azimuth and elevation plus other details from your city location.

Track the satellite on the map from your city or location and see movement details for azimuth, elevation, latitude, longitude, range, height, and movement on the map or in text.







IsCatalogInMostPopularTable: catalog: 43074, numindb: 459
Update: records affected: 1



GetName: 43074 IRIDIUM 151

Hit Count: updated at: Mon, 10 Aug 2020 21:23:51 GMT